Weather History for Lytton, BC

Change the Weather History Date:

Sunday, February 24, 2013

  Actual Average Record
Temperature  
Mean Temperature 43 °F -  
Max Temperature 46 °F 42 °F 50 °F (1997)
Min Temperature 39 °F 27 °F 10 °F (2011)
Degree Days  
Heating Degree Days 22    
Moisture  
Dew Point -    
Average Humidity    
Maximum Humidity    
Minimum Humidity    
Precipitation  
Precipitation 0.00 in - - ()
Sea Level Pressure  
Sea Level Pressure 30.02 in    
Wind  
Wind Speed 19 mph ()    
Max Wind Speed 31 mph    
Max Gust Speed 41 mph    
Visibility 9.0 miles    
Events      
Averages and records for this station are not official NWS values.
T = Trace of Precipitation, MM = Missing Value Source: Averaged Metar Reports

Daily Weather History Graph

Daily Weather History Graph

Search for Another Location

Airport:

Trip Planner

Search our weather history database for the weather conditions in past years. The results will help you decide how hot, cold, wet, or windy it might be!

Date:

Astronomy

Feb. 24, 2013 Rise Set
Actual Time 6:59 AM PST 5:40 PM PST
Civil Twilight 6:26 AM PST 6:13 PM PST
Nautical Twilight 5:48 AM PST 6:51 PM PST
Astronomical Twilight 5:11 AM PST 7:28 PM PST
Moon 4:57 PM PST (2/24) 6:01 AM PST (2/24)
Length of Visible Light 11h 46m
Length of Day
10h 41m
Waxing Gibbous, 99% of the Moon is Illuminated
Feb 24
Waxing Gibbous
Feb 25
Full
Mar 4
Last Quarter
Mar 11
New
Mar 19
First Quarter

Hourly Weather History & Observations

Time (PST) Temp. Windchill Dew Point Humidity Pressure Visibility Wind Dir Wind Speed Gust Speed Precip Events Conditions
12:00 AM 41.0 °F 32.8 °F - N/A% 30.17 in 9.0 mi SSW 16.1 mph 27.6 mph N/A   Clear
1:00 AM 41 °F - - % 30.18 in 9 mi SSW 13.8 mph - -  
1:00 AM 41.0 °F 35.2 °F - N/A% 30.18 in 9.0 mi SSW 9.2 mph 24.2 mph N/A   Clear
2:00 AM 41.0 °F 31.9 °F - N/A% 30.17 in 9.0 mi South 19.6 mph 25.3 mph N/A   Clear
3:00 AM 41.0 °F 31.4 °F - N/A% 30.15 in 9.0 mi SSW 21.9 mph 32.2 mph N/A   Clear
4:00 AM 42 °F - - % 30.14 in 9 mi SSW 20.7 mph - -  
4:00 AM 41.0 °F 31.1 °F - N/A% 30.14 in 9.0 mi SSW 23.0 mph 31.1 mph N/A   Clear
5:00 AM 42.8 °F 35.1 °F - N/A% 30.12 in 9.0 mi SSW 16.1 mph 29.9 mph N/A   Clear
6:00 AM 41.0 °F 31.4 °F - N/A% 30.12 in 9.0 mi SSW 21.9 mph 32.2 mph N/A   Clear
7:00 AM 41 °F - - % 30.11 in 9 mi SSW 20.7 mph - -  
7:00 AM 41.0 °F 31.4 °F - N/A% 30.11 in 9.0 mi SSW 21.9 mph 34.5 mph N/A   Clear
8:00 AM 41.0 °F 31.9 °F - N/A% 30.11 in 9.0 mi SSW 19.6 mph 29.9 mph N/A   Clear
9:00 AM 41.0 °F 31.6 °F - N/A% 30.11 in 9.0 mi SSW 20.7 mph 38.0 mph N/A   Partly Cloudy
10:00 AM 42 °F - - % 30.09 in 9 mi South 27.6 mph - -  
10:00 AM 41.0 °F 30.2 °F - N/A% 30.09 in 9.0 mi South 27.6 mph 41.4 mph N/A   Partly Cloudy
11:00 AM 42.8 °F 33.5 °F - N/A% 30.08 in 9.0 mi South 23.0 mph 39.1 mph N/A   Partly Cloudy
12:00 PM 42.8 °F 32.5 °F - N/A% 30.06 in 9.0 mi South 28.8 mph 41.4 mph N/A   Clear
1:00 PM 44 °F - - % 30.03 in 9 mi South 26.5 mph - -  
1:00 PM 42.8 °F 32.7 °F - N/A% 30.03 in 9.0 mi South 27.6 mph 40.3 mph N/A   Partly Cloudy
2:00 PM 46.4 °F 37.9 °F - N/A% 30.02 in 9.0 mi SSW 25.3 mph 39.1 mph N/A   Partly Cloudy
3:00 PM 46.4 °F 38.1 °F - N/A% 30.01 in 9.0 mi SSW 24.2 mph 38.0 mph N/A   Clear
4:00 PM 46 °F - - % 29.98 in 9 mi South 29.9 mph - -  
4:00 PM 46.4 °F 37.0 °F - N/A% 29.98 in 9.0 mi South 31.1 mph 41.4 mph N/A   Clear
5:00 PM 44.6 °F 36.1 °F - N/A% 29.95 in 9.0 mi SSW 21.9 mph 33.4 mph N/A   Clear
6:00 PM 42.8 °F 33.8 °F - N/A% 29.94 in 9.0 mi SSW 21.9 mph 33.4 mph N/A   Clear
7:00 PM 42 °F - - % 29.92 in 9 mi SSW 23.0 mph - -  
7:00 PM 42.8 °F 32.7 °F - N/A% 29.92 in 9.0 mi SSW 27.6 mph 35.7 mph N/A   Clear
8:00 PM 42.8 °F 34.0 °F - N/A% 29.88 in 9.0 mi SSW 20.7 mph 36.8 mph N/A   Clear
9:00 PM 41.0 °F 31.6 °F - N/A% 29.84 in 9.0 mi SSW 20.7 mph 32.2 mph N/A   Clear
10:00 PM 42 °F - - % 29.81 in 9 mi SSW 19.6 mph - -  
10:00 PM 42.8 °F 34.8 °F - N/A% 29.81 in 9.0 mi SSW 17.3 mph 33.4 mph N/A   Clear
11:00 PM 41.0 °F 32.8 °F - N/A% 29.81 in 9.0 mi SSW 16.1 mph 33.4 mph N/A   Clear
11:48 PM 39.2 °F 29.3 °F - N/A% 29.76 in 9.0 mi SSW 20.7 mph 32.2 mph N/A   Clear